GFSGBSN_250_rhum_021.txt.gz
RH
68 88 100 100 100 100 100 100 100 92 100 78 94 81 100 96 94 93 82 70 84 100 100 100 100 100 100 64 57 44 36 28 23 19 19 21 38 56 48 75 66 71 66 42 76 100 100
34 55 71 95 100 100 100 100 100 100 100 100 100 100 100 100 100 95 80 62 85 100 100 100 100 99 100 63 61 44 37 27 24 20 21 23 41 64 75 83 99 78 86 96 100 100 100
30 17 45 61 84 100 98 92 100 100 100 100 100 100 100 99 100 100 92 69 90 100 100 100 100 100 100 60 68 44 41 28 23 20 23 23 46 72 70 84 95 86 100 100 100 100 100
58 26 28 27 29 52 55 50 70 76 74 93 100 100 100 100 100 100 81 64 93 100 100 100 100 80 68 68 63 46 42 31 24 20 23 24 50 68 96 66 88 100 100 100 100 100 100
100 68 59 60 46 39 36 52 63 50 67 63 90 100 100 100 100 98 71 82 80 100 100 100 91 92 72 76 64 48 45 35 24 21 20 25 49 78 79 100 95 100 100 100 100 100 100
100 100 99 74 78 70 81 79 58 61 53 68 71 60 99 100 100 100 82 97 99 94 77 74 88 78 70 78 72 53 50 37 21 21 17 27 51 80 97 86 96 100 92 100 100 100 100
100 100 100 100 100 92 100 100 100 99 79 84 63 51 54 61 100 100 99 100 100 100 87 84 83 73 81 73 77 56 49 36 20 22 16 29 42 74 86 98 99 100 100 93 100 100 100
86 76 77 90 94 95 100 100 91 94 100 55 74 79 57 61 67 99 86 92 100 100 72 71 79 85 86 80 84 63 49 35 22 23 17 29 35 68 84 85 96 100 100 97 76 94 93
67 60 48 58 39 34 36 53 50 46 69 72 42 57 51 49 58 99 97 100 100 98 100 88 98 81 96 92 88 68 53 31 22 23 18 24 37 51 87 96 100 100 100 100 100 100 100
32 29 24 21 27 23 24 28 30 33 42 42 39 48 51 46 51 50 100 100 100 100 100 100 100 93 98 96 90 70 47 31 24 24 19 21 39 46 85 100 100 84 96 71 97 99 99
18 18 17 17 19 19 20 27 28 23 25 50 39 42 46 47 43 66 96 100 100 100 100 99 96 92 100 100 89 72 42 33 23 26 21 19 35 46 70 82 88 99 92 67 66 84 99
14 15 16 20 22 19 21 25 40 28 64 56 54 48 46 54 54 66 89 100 100 100 100 100 97 90 98 98 91 69 43 35 27 28 26 18 25 53 58 60 90 99 100 81 74 69 96
7 8 11 15 18 17 20 23 34 40 72 69 94 93 66 65 50 68 99 96 100 100 100 99 98 98 100 100 87 63 45 37 31 32 29 19 18 50 67 71 95 99 100 100 95 100 76
4 4 5 8 13 16 19 24 26 39 69 68 99 100 72 74 58 64 78 100 100 100 100 100 100 100 100 100 87 55 47 35 32 35 26 22 17 31 63 80 83 88 90 100 100 100 97
4 4 4 5 8 12 18 23 26 28 46 75 97 98 85 100 79 66 70 93 100 100 98 100 100 100 100 90 68 42 34 32 33 34 30 26 17 17 44 66 73 69 75 82 87 93 84
4 4 4 4 4 9 15 19 25 27 41 77 86 99 98 100 98 74 71 84 100 100 100 100 100 100 90 70 51 37 30 31 33 39 33 27 20 19 21 53 60 66 66 79 82 88 81
3 4 4 4 4 5 10 15 21 25 32 62 94 86 99 100 96 80 78 100 100 100 100 100 100 100 92 73 54 42 44 41 34 36 34 24 26 22 18 31 34 49 66 79 83 78 79
2 3 3 4 4 4 4 10 20 24 28 48 68 86 100 84 77 89 85 100 100 100 100 100 100 100 100 80 64 59 45 45 35 31 32 25 29 29 24 16 19 40 49 58 62 78 80
2 2 2 3 4 4 4 7 14 21 27 33 65 74 100 64 77 91 100 100 100 100 100 100 100 100 96 85 73 63 51 47 34 32 28 27 30 33 39 28 20 18 26 32 39 63 46
2 2 2 3 3 4 5 5 10 18 23 25 46 55 94 38 96 100 100 100 100 100 100 100 100 99 75 67 76 58 52 48 38 32 32 28 30 34 54 43 42 33 24 20 26 32 25
1 2 2 2 3 4 4 4 7 14 19 20 27 40 57 71 86 100 100 100 100 99 100 100 91 92 68 66 72 68 63 52 40 34 38 38 31 32 51 54 55 56 54 53 58 59 67
1 2 2 2 2 3 4 4 5 9 15 16 16 30 36 99 100 100 100 100 100 97 100 98 98 93 75 87 88 81 70 55 40 45 36 35 33 34 49 60 53 30 42 39 36 40 66
1 2 2 2 2 3 4 5 5 7 10 9 12 17 48 97 94 93 86 100 100 100 100 100 100 99 94 100 89 76 73 61 51 41 38 34 30 36 56 54 51 24 21 18 21 29 42
1 2 2 2 2 2 4 4 5 5 5 8 15 17 51 59 76 99 100 100 100 100 100 100 100 89 100 100 97 84 69 59 55 49 43 31 34 40 56 54 39 33 29 36 37 37 43
2 2 2 2 2 2 3 4 5 4 3 6 14 15 28 45 99 100 100 100 100 95 96 78 83 94 69 69 91 90 71 66 79 66 52 36 41 45 54 53 58 52 39 40 36 47 61
2 2 2 2 2 2 3 4 4 4 3 4 10 15 18 36 80 100 100 100 100 100 100 92 100 96 96 99 96 83 93 92 88 80 61 50 34 41 50 61 69 74 58 46 40 74 66
2 2 2 2 2 2 2 3 4 4 4 3 6 11 16 35 77 96 100 100 100 100 100 100 100 100 100 100 91 92 91 100 83 86 76 51 37 50 48 59 88 91 69 79 61 74 54
2 2 2 2 2 2 2 3 3 4 3 3 4 10 17 29 71 89 100 100 100 100 100 100 100 91 100 93 81 83 83 98 88 85 71 54 46 58 67 66 62 62 74 71 67 65 58
2 2 2 2 2 2 2 2 3 3 3 4 3 8 18 27 36 70 99 100 99 100 100 100 100 100 100 98 92 80 78 77 91 88 84 55 50 57 72 78 65 54 49 50 61 57 57

GFSGBSN_250_rhum_024.txt.gz
RH
66 53 43 48 38 27 50 100 100 100 100 100 99 86 68 54 77 83 88 58 70 96 97 82 59 73 100 100 93 99 78 44 31 28 24 24 19 28 47 53 55 68 49 44 62 88 100
85 72 60 63 52 42 28 51 86 100 100 100 100 100 97 96 90 100 100 98 100 100 79 66 75 93 100 100 98 90 55 42 38 32 26 22 19 28 52 64 67 83 71 80 96 100 100
96 100 78 74 75 61 38 21 41 80 100 100 100 100 100 100 100 100 100 100 100 100 79 79 89 88 100 87 84 59 52 46 40 30 28 21 20 29 52 54 79 97 94 92 100 100 100
100 94 97 93 96 82 57 25 26 38 50 79 89 87 82 87 83 75 100 100 100 100 100 90 89 89 93 86 75 73 66 55 43 26 32 19 19 31 56 65 98 99 82 99 100 100 98
100 100 97 95 95 98 85 48 29 34 33 42 77 63 69 75 66 73 84 94 96 98 100 100 96 100 97 94 76 70 61 56 46 28 37 21 18 32 67 69 86 100 68 89 81 92 100
100 100 100 100 99 87 95 92 51 45 54 46 45 58 52 65 68 76 80 92 84 77 86 100 100 94 95 97 72 60 59 57 44 35 39 22 19 33 62 72 91 82 100 84 97 100 100
100 100 100 100 100 100 100 95 90 75 73 66 74 74 77 93 77 94 94 89 93 73 72 90 99 89 85 80 66 63 72 54 42 35 41 22 19 35 57 76 84 87 100 100 92 84 86
100 100 100 100 100 100 100 100 98 94 100 99 84 85 99 99 100 100 100 100 98 64 52 53 100 100 98 78 62 88 66 63 53 34 43 26 21 34 40 76 87 97 94 100 100 93 86
82 76 70 100 100 100 100 100 100 100 100 100 100 100 100 100 100 98 97 76 72 92 50 50 100 100 98 70 87 91 61 71 66 41 40 28 22 32 40 69 96 100 94 100 94 84 88
100 98 99 100 97 100 100 100 100 100 100 94 92 98 76 83 79 57 51 79 65 52 58 45 71 100 100 73 99 82 58 87 75 53 38 23 25 23 46 46 87 84 86 96 97 100 99
30 33 37 60 75 67 50 85 70 82 79 57 62 54 63 39 34 51 33 40 62 46 46 40 52 74 100 100 92 63 67 82 78 58 38 23 26 19 47 50 64 84 96 100 97 83 98
11 13 15 19 23 29 35 44 33 29 31 31 34 42 31 26 33 28 36 42 44 34 40 40 46 99 100 100 82 67 66 97 78 57 39 22 22 22 32 58 57 74 92 87 100 79 97
7 8 10 11 11 14 20 24 22 19 23 25 24 29 21 28 30 29 50 65 58 44 53 45 61 68 100 100 91 67 93 100 79 48 34 21 21 27 20 56 60 61 92 78 82 91 91
5 5 5 6 6 8 15 15 15 20 22 23 26 24 26 28 28 38 54 73 95 57 77 85 93 84 79 77 76 93 100 100 70 43 36 27 23 26 22 38 59 60 78 77 95 100 100
5 5 5 5 5 6 6 8 12 14 18 24 27 22 29 31 36 39 44 46 100 100 100 100 96 100 98 84 64 88 100 99 60 49 38 28 23 26 23 21 44 63 62 76 84 94 100
3 4 4 4 5 6 6 7 8 9 13 20 20 24 29 35 53 43 39 69 100 100 100 100 100 97 100 67 65 99 100 94 67 58 43 33 27 26 25 22 22 48 58 66 78 80 83
3 3 3 3 4 5 5 6 7 7 9 13 16 23 29 33 39 36 48 79 100 100 100 100 100 100 100 77 92 100 100 87 70 63 50 39 35 25 27 25 20 21 46 64 77 83 81
2 2 2 2 3 3 4 5 7 6 7 8 12 18 28 36 31 45 58 99 100 100 100 100 100 100 100 100 100 100 100 99 93 72 58 42 34 26 26 26 24 29 23 45 63 89 100
2 2 2 2 2 2 3 4 6 6 6 7 8 16 27 37 17 51 80 91 100 100 100 100 100 100 100 100 100 100 100 100 90 73 58 45 38 26 29 26 24 39 39 22 45 57 64
2 2 2 2 2 2 2 4 5 6 6 7 7 12 24 25 26 54 99 100 100 100 100 100 100 100 100 100 100 100 100 100 85 71 50 51 42 28 30 26 29 48 52 37 22 26 31
1 2 2 2 2 2 2 3 4 6 6 5 5 8 19 22 24 66 100 100 100 90 98 100 100 100 100 100 100 100 100 99 80 64 58 54 42 31 29 25 28 62 58 58 50 38 38
1 1 2 2 2 2 2 3 4 5 5 4 4 8 13 27 31 53 100 100 100 88 97 100 100 100 100 100 100 100 100 97 78 69 64 58 46 30 35 26 28 62 50 42 47 57 64
1 1 2 2 2 2 2 2 3 5 4 3 4 7 13 24 27 40 71 100 100 100 100 100 100 100 100 100 100 100 100 91 86 82 70 70 55 39 34 34 28 55 54 52 33 22 32
1 1 1 2 2 2 2 2 3 4 4 4 4 7 12 15 27 58 100 100 100 100 100 100 100 100 100 100 100 100 100 89 69 66 81 70 57 37 40 43 37 36 48 49 35 29 34
1 1 1 2 2 2 2 2 2 4 4 4 4 6 12 20 38 78 99 100 100 100 100 100 100 100 100 100 100 100 100 77 71 91 84 71 55 47 50 40 38 52 44 48 55 55 51
1 2 2 2 2 2 2 2 2 4 4 4 5 7 12 21 36 84 100 100 100 100 100 100 100 100 99 99 90 90 88 79 88 92 80 68 59 53 52 39 38 50 49 52 64 96 56
1 2 2 2 2 2 2 2 2 3 3 3 4 6 9 22 38 89 98 100 100 100 100 100 100 79 80 95 98 94 96 99 91 87 75 65 63 58 61 52 45 52 52 54 77 86 76
2 2 2 2 2 2 2 2 2 3 3 3 4 5 10 22 37 88 100 100 100 100 100 100 100 90 93 97 85 100 100 100 100 97 86 74 59 65 57 57 66 48 49 58 56 77 81
2 2 2 2 2 2 2 2 3 3 3 3 4 4 10 22 27 66 100 100 100 100 100 100 100 100 100 100 99 100 100 100 100 95 93 79 60 63 64 62 69 62 51 55 63 57 56

GFSGBSN_250_rhum_027.txt.gz
RH
28 29 41 56 52 49 56 51 48 40 38 34 83 100 100 100 91 87 99 84 73 78 99 84 68 84 92 88 87 77 70 54 65 76 50 34 25 25 20 23 48 50 38 57 80 93 96
33 38 48 55 82 64 74 68 61 58 50 40 51 100 100 100 100 99 92 80 78 89 100 100 100 95 67 99 99 89 62 70 76 63 41 33 24 28 20 28 54 57 54 44 95 100 100
64 51 53 57 76 72 82 99 78 64 59 56 31 40 100 100 100 100 100 100 100 100 100 100 94 98 99 100 99 82 70 74 73 51 34 30 24 31 21 30 55 67 58 56 99 97 100
77 64 49 55 35 99 99 90 100 82 75 61 41 27 57 99 98 100 100 100 88 88 91 97 83 84 84 85 79 75 82 71 64 53 34 28 26 34 22 31 58 69 71 72 94 100 99
88 80 87 38 37 49 100 100 100 100 99 80 62 53 29 61 43 61 86 86 86 85 82 85 81 85 83 66 63 53 73 61 59 45 34 29 27 31 23 29 59 67 77 83 67 88 80
50 71 69 43 64 77 60 97 99 100 100 97 99 88 40 34 45 43 79 75 61 73 83 84 100 84 99 90 82 69 62 57 58 42 37 30 31 33 24 30 47 75 83 76 76 84 72
53 59 64 95 79 91 66 65 92 100 100 100 100 100 83 52 43 52 46 57 49 60 74 90 100 100 100 93 73 81 59 58 56 44 36 31 33 35 24 24 43 66 76 94 85 63 74
100 100 97 100 100 100 98 98 74 100 100 100 100 100 100 85 63 59 57 56 73 64 82 100 100 92 87 83 67 64 56 70 53 43 39 32 35 31 26 23 41 62 73 78 90 99 83
79 96 100 100 100 100 100 100 95 100 100 100 100 100 100 100 98 71 71 75 90 95 64 100 100 95 72 66 50 58 52 50 44 49 42 34 40 27 26 23 44 50 89 74 84 100 94
73 70 89 99 76 100 98 100 100 100 99 100 100 100 100 100 100 94 96 97 98 100 100 100 100 91 72 45 53 54 48 44 85 50 45 39 47 31 23 24 39 56 74 97 99 100 100
47 67 63 66 68 100 100 100 87 100 100 100 100 92 100 100 100 100 100 100 100 100 100 100 87 80 68 46 53 48 43 60 90 60 49 46 54 36 24 25 28 56 56 78 100 94 99
25 28 31 34 36 35 63 97 100 100 100 99 99 79 78 91 100 100 100 100 100 100 100 100 80 62 48 57 84 50 40 51 41 68 54 61 55 36 24 24 24 42 61 66 83 90 99
12 12 13 14 16 17 20 25 42 56 100 100 100 98 94 95 100 100 100 100 100 100 100 75 70 58 98 99 97 53 66 63 44 60 54 72 56 37 32 26 25 27 70 67 72 90 97
7 6 6 6 6 7 8 12 16 23 32 33 56 53 56 88 100 77 94 77 79 83 47 54 63 45 64 99 100 72 95 74 45 44 44 70 58 42 38 33 26 26 36 73 72 72 90
7 7 7 7 6 6 6 6 7 11 15 20 26 26 32 42 44 42 92 85 37 39 40 47 43 51 62 98 100 100 100 80 44 36 47 73 62 51 39 33 27 27 26 46 73 72 93
5 5 5 5 5 5 6 6 7 6 6 10 16 18 23 28 32 29 26 28 46 36 36 38 38 87 75 100 100 100 98 92 46 46 65 76 65 58 43 35 29 29 32 26 57 71 81
5 5 4 4 4 4 4 4 6 6 7 5 6 8 14 21 25 23 20 27 32 34 38 38 51 94 99 100 100 100 100 82 47 63 77 78 83 62 47 35 35 28 31 26 37 80 72
3 3 4 4 4 4 3 3 4 5 6 6 5 4 8 10 14 14 21 28 33 33 38 44 87 100 99 100 100 95 100 95 52 86 100 83 86 58 48 36 32 29 29 30 23 46 58
2 2 3 3 4 4 3 3 3 3 4 5 5 7 6 7 9 10 20 29 34 36 39 53 94 100 100 93 100 98 100 83 85 100 100 99 87 65 46 35 34 30 30 29 38 41 45
2 2 2 2 3 3 4 3 3 3 3 3 4 5 6 4 5 9 16 32 33 45 42 73 72 99 100 100 100 95 100 87 100 100 100 99 74 61 50 39 34 30 30 33 44 50 32
2 2 2 2 2 3 3 3 3 3 2 2 3 4 5 4 4 8 18 29 36 51 46 84 71 100 100 100 100 100 100 92 100 100 100 93 78 69 56 39 37 34 33 30 51 53 57
1 1 1 2 2 2 3 3 3 3 2 2 3 4 4 6 8 9 17 26 44 68 71 64 92 100 100 100 100 100 100 100 100 100 100 99 93 77 52 39 43 39 31 37 37 52 51
1 1 1 1 2 2 2 2 3 2 2 2 4 4 5 7 6 8 18 31 65 100 85 88 100 100 100 100 100 100 100 100 100 100 98 90 78 64 49 39 54 41 39 40 36 52 54
1 1 1 1 2 2 2 2 2 2 2 2 4 4 6 6 5 13 24 35 68 100 100 100 100 100 100 100 100 100 100 100 100 100 100 100 83 64 48 42 62 42 37 37 42 50 45
1 1 1 1 1 2 2 2 2 2 3 3 3 4 6 6 10 16 25 48 89 100 84 100 100 100 100 100 100 100 100 99 100 100 100 96 87 57 44 54 58 49 42 44 40 56 54
1 1 1 1 1 2 2 2 3 3 3 2 3 5 5 7 10 19 33 77 100 100 97 100 100 100 100 100 100 100 97 100 100 100 100 82 65 59 68 61 69 51 44 40 44 64 37
1 1 2 1 2 2 3 3 3 4 3 3 4 5 6 6 11 21 40 82 100 100 100 100 100 100 100 100 100 100 100 100 100 100 100 88 68 77 76 76 80 59 47 43 43 50 47
1 2 2 2 2 3 3 4 4 3 2 3 4 6 6 7 10 24 35 55 100 100 100 100 100 100 99 85 82 100 100 100 100 100 100 100 91 83 73 74 83 60 56 47 43 40 51
2 2 2 2 3 3 4 3 3 2 3 3 5 6 7 6 11 24 36 52 100 100 100 100 100 100 91 96 100 100 100 100 99 100 100 100 86 60 71 95 84 76 62 57 56 50 48

GFSGBSN_250_rhum_030.txt.gz
RH
99 100 100 100 100 76 52 38 28 41 53 57 47 44 40 41 40 94 100 92 87 95 100 100 91 76 100 85 84 64 81 51 41 34 41 42 43 32 28 28 20 25 48 41 43 67 76
77 100 100 100 100 98 57 42 32 26 38 66 69 54 50 50 38 94 100 100 100 100 100 98 99 100 100 94 79 85 62 42 35 30 28 42 40 33 30 32 22 32 52 46 42 71 88
67 94 100 100 100 99 80 55 35 44 31 40 84 99 64 59 47 52 100 100 100 100 100 100 100 94 100 94 65 53 56 38 40 41 49 34 39 34 32 30 22 40 59 53 67 64 89
96 93 100 100 100 100 93 66 50 46 32 33 60 100 98 66 53 40 70 100 100 100 100 100 90 93 81 77 59 58 52 66 58 41 52 44 37 34 38 26 23 40 69 74 67 58 73
84 100 100 100 100 100 86 77 69 74 38 35 37 90 100 100 71 51 46 100 100 100 93 88 85 87 92 64 71 68 71 46 50 54 53 45 31 36 39 27 23 32 67 81 84 67 58
85 82 100 100 100 91 82 54 52 63 41 31 39 74 89 100 100 72 59 61 92 72 47 47 80 76 74 70 78 100 96 55 52 50 43 45 26 40 50 30 25 28 53 70 93 79 69
36 42 37 42 36 47 50 42 42 47 52 33 32 65 53 100 100 100 85 62 72 62 53 54 59 75 49 64 100 100 100 89 55 62 56 46 28 35 48 38 27 27 51 70 76 89 77
61 49 34 28 31 37 52 48 34 40 46 52 35 35 69 60 80 100 100 96 63 67 67 50 51 50 53 68 97 100 100 89 78 68 46 51 31 30 50 39 30 25 45 62 72 77 79
79 64 64 62 48 45 42 40 48 53 49 71 71 60 70 57 80 90 82 100 97 83 69 63 64 61 61 80 99 100 100 78 57 62 60 55 33 28 53 40 32 24 29 60 51 69 88
68 65 64 63 70 66 74 99 76 58 90 87 79 87 100 99 74 77 96 100 100 100 90 79 82 78 74 99 100 100 100 100 69 66 52 55 39 26 43 42 34 26 26 53 58 68 88
73 79 95 99 98 100 100 91 93 99 100 100 100 100 100 99 100 93 66 100 100 100 100 91 100 92 92 100 100 100 100 98 74 77 63 50 44 30 27 42 41 32 26 37 66 68 85
39 42 40 46 55 55 63 72 78 100 100 100 100 100 100 100 100 100 100 76 94 94 100 100 98 100 100 100 100 100 100 100 100 100 64 46 46 32 33 44 43 33 29 31 61 72 87
20 20 20 20 21 23 25 30 37 60 51 72 100 87 99 100 83 100 100 100 98 84 89 100 100 100 100 100 100 100 100 100 100 100 92 47 44 28 36 50 45 38 33 31 37 73 78
14 14 14 13 13 15 14 19 20 23 33 33 49 85 63 100 88 85 100 100 100 100 100 100 100 100 100 100 100 100 100 99 92 97 93 54 51 28 29 51 49 42 36 34 32 47 73
9 9 9 8 8 8 7 7 9 12 15 18 24 29 34 52 100 81 100 78 88 100 90 100 100 88 100 100 100 100 100 100 78 89 95 69 59 33 36 57 51 45 42 36 33 35 57
8 8 8 7 7 7 7 7 7 8 7 8 10 12 20 34 54 50 50 47 77 86 100 100 96 100 93 100 100 100 100 85 79 100 100 68 52 34 54 64 51 44 42 35 34 37 42
10 9 8 7 6 6 6 6 6 6 7 7 5 5 9 16 22 22 20 22 51 100 100 100 97 100 98 99 100 84 100 67 51 100 100 66 50 38 73 79 57 44 43 36 33 37 39
7 7 7 7 7 8 8 8 7 5 5 5 6 6 7 7 10 10 11 22 26 71 100 100 100 100 93 100 100 98 100 56 100 100 98 72 46 55 94 86 64 45 38 37 38 37 46
6 6 6 5 6 6 8 8 7 6 4 3 3 5 7 7 5 4 8 15 17 28 79 90 100 97 80 64 98 68 61 55 100 100 89 100 46 90 100 86 69 51 39 39 30 33 60
5 4 4 4 4 5 5 6 6 5 5 4 2 3 4 5 5 5 6 7 13 19 25 44 54 47 40 41 42 49 40 80 100 92 88 80 52 69 100 98 75 50 47 37 32 36 38
3 3 3 3 3 3 4 4 4 4 4 3 2 2 3 4 6 8 8 7 9 10 21 28 35 38 35 42 43 42 59 100 100 100 100 100 79 63 100 100 81 56 46 39 43 38 36
2 2 2 2 2 2 3 3 3 4 4 2 2 3 4 5 5 5 6 8 8 10 15 26 34 38 42 42 40 88 100 92 100 100 74 100 70 74 100 99 80 72 37 41 39 38 44
1 1 1 1 2 2 2 2 3 3 3 2 3 4 3 4 4 3 6 8 12 14 17 25 40 46 45 45 45 99 100 100 100 100 80 100 74 98 100 89 81 83 49 41 43 46 46
1 1 1 1 1 1 2 2 2 2 2 4 5 5 5 4 3 5 10 10 10 14 20 28 36 49 45 47 76 92 100 100 100 100 92 100 62 100 100 92 100 70 53 39 46 47 50
1 1 1 1 1 1 1 2 2 2 2 4 4 5 5 4 6 7 8 9 10 14 23 34 43 52 45 67 74 78 100 100 100 100 98 91 86 100 100 100 100 93 49 43 47 49 38
1 1 1 1 1 1 1 1 2 2 3 4 5 5 4 4 6 8 8 8 10 16 25 33 50 50 52 68 68 99 100 100 100 100 100 100 100 100 100 100 100 73 54 37 56 60 49
1 1 1 1 1 2 1 2 2 3 4 5 5 4 3 6 6 7 8 10 11 17 26 38 49 51 100 73 64 100 100 100 100 100 100 100 100 97 100 100 100 83 55 41 54 63 51
1 1 1 1 2 2 2 2 3 4 4 4 4 4 4 6 7 8 8 9 10 16 24 38 40 100 83 58 71 100 100 100 100 100 100 100 100 100 100 98 100 74 48 50 50 74 71
1 1 1 2 2 2 2 3 4 4 4 3 3 4 6 6 7 9 10 9 9 19 33 47 62 84 72 79 100 100 100 100 100 100 100 96 90 100 95 90 99 90 59 50 53 72 92

GFSGBSN_250_rhum_033.txt.gz
RH
100 100 100 100 100 82 96 100 100 100 82 84 51 32 34 39 46 44 44 47 49 70 100 100 99 100 97 100 100 96 82 66 53 34 25 18 24 34 34 32 28 25 22 35 46 44 72
100 100 98 100 100 95 84 97 100 100 94 93 80 46 32 30 40 54 49 48 52 99 100 100 99 100 100 100 100 100 89 63 36 43 29 21 24 35 32 30 28 28 27 45 52 58 60
100 100 100 100 100 100 100 100 100 100 100 100 89 64 45 39 32 50 56 58 56 82 100 100 100 99 100 100 100 100 71 51 44 53 29 28 34 42 35 30 30 30 29 53 68 70 63
100 100 100 100 100 100 100 100 100 100 100 100 99 78 62 50 30 29 45 81 63 62 95 100 100 100 100 100 100 84 55 51 61 55 44 42 33 40 40 32 35 28 28 61 77 74 59
100 97 96 97 96 100 100 94 96 100 100 100 100 81 80 61 50 30 43 57 94 71 60 97 100 100 100 96 100 83 54 45 41 91 53 55 32 33 39 32 43 27 28 55 81 87 63
100 90 100 87 65 68 75 64 83 100 100 100 100 100 83 72 56 34 31 36 76 86 69 69 100 100 100 69 71 63 65 39 60 69 57 80 75 46 40 38 45 33 26 44 65 77 70
100 100 100 100 100 98 76 69 91 100 100 100 100 100 99 87 89 44 32 28 61 89 90 72 87 94 72 73 56 59 54 45 50 99 50 90 80 47 38 41 43 37 32 27 56 77 76
73 80 99 99 100 93 79 60 54 66 76 74 79 96 98 89 55 36 32 31 46 88 100 82 86 96 89 62 56 48 50 49 61 83 95 93 55 55 37 41 46 43 36 25 45 61 77
67 72 90 72 87 85 84 58 35 35 38 39 46 39 44 51 50 41 32 30 37 53 98 100 80 98 85 80 79 58 66 69 71 91 100 100 85 76 62 40 48 48 39 27 29 59 67
72 73 57 66 60 60 55 48 55 55 52 51 38 41 53 44 50 44 35 31 37 37 56 100 100 98 97 100 90 89 83 90 96 100 100 100 92 92 81 39 47 50 42 32 27 50 67
80 77 70 66 61 60 62 66 87 73 73 69 67 49 36 44 44 61 39 51 36 53 42 81 100 100 100 100 94 92 98 92 100 100 100 100 100 100 70 41 42 52 46 36 31 29 61
62 61 55 55 62 70 63 60 59 53 48 59 82 63 72 59 54 54 51 58 42 45 50 60 100 100 100 100 100 89 90 92 100 100 95 100 100 93 75 55 39 62 48 41 38 30 44
32 31 32 38 44 42 42 47 56 63 88 100 99 60 62 62 81 84 98 72 82 48 80 66 64 94 100 100 100 99 99 94 88 100 100 100 100 100 99 65 43 52 56 44 39 32 32
22 22 22 22 23 24 24 25 28 27 27 36 44 69 100 100 100 81 64 60 80 84 89 92 95 98 72 100 100 100 100 100 100 100 100 99 100 100 100 64 45 54 60 46 42 37 30
17 16 17 17 17 16 16 16 17 19 20 22 22 24 29 43 100 100 96 68 47 97 100 100 100 100 91 62 82 100 100 100 100 100 100 99 95 100 94 57 48 55 77 54 44 41 34
11 10 10 10 10 10 9 9 9 10 11 13 15 18 19 21 26 36 48 33 49 85 100 100 100 100 100 100 89 100 100 100 100 100 100 100 100 100 100 70 49 49 79 66 47 43 36
10 10 9 9 9 10 9 9 9 8 8 8 7 9 14 15 18 18 16 18 28 90 76 91 100 100 100 100 100 100 100 100 100 100 100 100 100 100 100 95 45 46 88 81 53 46 39
10 10 10 10 9 8 8 8 8 8 8 7 7 7 9 9 10 9 10 16 20 26 48 49 100 100 100 100 100 100 100 100 100 100 100 100 100 94 91 82 79 41 96 94 64 44 42
9 8 9 10 11 12 11 12 13 11 9 7 5 6 7 8 7 6 6 8 14 17 18 29 46 94 99 100 100 100 100 100 100 100 100 99 95 100 93 100 70 50 100 99 73 45 47
13 13 13 14 13 12 13 14 14 14 13 10 5 5 6 5 6 7 7 8 8 9 12 18 31 47 87 100 100 100 100 100 100 100 100 100 94 92 100 99 64 52 100 100 72 52 42
9 8 8 8 7 8 8 8 9 9 9 9 5 3 6 6 6 9 8 9 8 7 7 12 24 31 44 92 100 100 100 100 100 100 100 97 75 85 100 100 93 43 97 100 91 56 44
7 6 5 5 5 5 5 5 6 7 8 6 4 2 6 8 9 6 5 4 6 8 8 8 14 28 42 55 100 100 84 91 95 100 100 97 82 67 92 98 94 46 73 100 97 60 55
4 3 3 3 3 3 3 4 4 5 4 4 3 4 5 6 6 5 6 8 8 8 7 9 12 19 30 42 62 98 85 83 70 86 98 100 67 53 100 100 100 98 93 94 94 60 60
2 2 2 2 2 2 2 2 3 3 3 3 4 4 4 6 8 7 9 10 8 7 9 11 11 13 19 28 36 47 51 49 57 80 81 62 52 100 100 100 60 99 80 100 77 68 62
2 2 2 2 2 2 2 2 2 2 2 3 4 3 5 6 7 8 6 7 6 6 8 13 11 16 21 21 28 32 37 40 50 48 42 46 100 100 100 92 99 100 100 99 93 73 59
2 2 2 2 2 2 2 2 2 2 2 2 3 3 4 5 6 6 6 8 7 7 10 10 12 16 17 18 23 33 36 38 37 40 41 52 100 100 100 100 100 100 94 95 86 90 34
2 2 1 1 1 1 2 2 2 2 2 2 3 4 5 6 5 5 6 9 10 9 10 13 10 9 14 16 22 34 38 40 44 45 65 62 99 100 100 99 100 100 100 100 96 85 37
2 1 2 2 1 2 2 2 2 2 2 3 4 4 4 5 5 6 7 8 7 8 9 13 13 11 13 13 27 32 42 47 50 95 69 92 100 100 100 92 76 100 100 84 100 60 50
1 1 1 1 1 1 2 2 2 2 3 3 4 4 4 5 5 6 8 8 9 10 13 11 13 12 14 20 29 34 44 56 65 98 80 100 100 100 100 100 100 100 100 100 98 77 54

GFSGBSN_250_rhum_039.txt.gz
RH
67 76 67 97 100 94 86 96 100 100 100 100 100 100 98 72 72 71 83 87 98 81 66 48 33 36 32 33 27 58 81 90 76 98 100 100 92 52 32 26 31 24 27 30 19 35 27
58 80 84 100 100 97 100 100 100 100 100 93 100 100 100 98 88 85 87 100 100 79 78 65 45 39 40 38 44 40 81 71 68 93 100 100 70 37 28 20 42 34 26 36 24 43 34
66 100 100 100 100 100 100 100 100 100 100 100 100 100 100 100 100 100 99 99 100 100 95 74 60 48 45 34 70 37 67 94 88 97 100 99 82 50 29 21 74 37 29 39 32 48 39
61 100 100 100 98 100 100 100 100 86 92 100 100 100 95 99 100 100 100 100 100 100 90 92 83 62 52 29 36 72 97 100 97 100 100 100 84 43 28 29 77 46 45 31 39 35 59
90 100 100 100 100 100 100 100 100 100 96 89 100 99 100 80 72 98 100 100 100 100 97 100 91 80 63 46 37 80 95 100 100 100 97 100 84 32 29 35 80 77 62 48 35 34 31
100 100 100 100 100 100 100 100 100 100 100 100 100 100 100 100 100 97 87 100 100 100 100 100 100 97 80 56 45 40 70 88 94 80 100 100 73 28 35 44 87 76 91 76 48 33 33
92 100 100 100 100 100 100 100 100 100 100 100 100 100 100 100 100 92 64 65 93 89 78 100 85 100 100 69 64 48 39 72 85 89 100 100 62 23 26 61 87 69 99 88 59 41 31
100 94 100 100 100 100 100 100 100 96 100 100 100 100 100 100 100 100 100 100 80 73 63 65 78 100 100 83 56 62 37 37 61 63 100 100 63 29 27 60 88 69 97 98 82 52 30
100 100 100 100 100 100 100 100 100 100 91 100 100 100 100 100 100 100 100 100 100 100 100 100 100 100 100 94 94 80 51 37 36 46 65 85 29 26 37 89 81 68 96 100 93 56 48
100 100 100 100 100 100 100 100 100 82 100 100 100 100 100 100 100 100 100 100 100 100 100 100 100 98 100 100 90 91 60 36 38 53 37 37 32 33 30 57 82 95 55 100 93 82 62
100 100 100 100 100 100 100 100 100 100 100 100 100 100 100 100 100 100 100 100 100 96 82 100 100 99 100 100 100 78 70 55 34 64 95 100 75 68 56 59 72 97 43 85 100 82 56
98 100 100 100 100 100 100 100 100 100 100 99 100 100 100 100 100 100 100 100 100 100 75 77 71 86 81 69 59 50 52 46 42 34 70 100 100 100 100 100 95 99 46 51 100 84 58
59 63 78 92 92 83 86 100 94 100 93 100 100 100 100 100 100 100 100 100 100 100 100 100 95 68 66 69 61 44 49 48 43 37 35 100 100 100 100 100 100 100 96 100 100 91 69
35 33 38 43 54 73 72 64 76 78 91 94 86 69 87 98 97 96 94 99 80 83 71 86 100 91 74 68 67 63 49 52 47 43 49 47 88 99 100 100 100 100 100 100 100 92 75
21 21 22 24 26 24 27 31 47 49 55 69 65 69 63 63 58 67 72 71 85 87 78 55 64 75 82 82 69 59 64 54 50 46 42 47 57 100 100 100 100 100 100 90 96 93 100
16 17 18 19 21 24 26 27 27 27 32 41 46 56 59 57 59 56 39 39 56 86 70 68 75 55 66 70 74 73 53 54 58 57 49 48 56 90 100 99 85 98 97 78 79 88 100
13 14 14 15 16 17 17 19 22 24 26 28 26 30 44 48 42 35 38 42 49 56 58 57 69 54 60 68 62 71 66 59 71 100 67 45 53 90 97 100 84 99 80 95 82 94 100
8 10 11 12 13 13 14 15 16 16 18 18 19 21 27 24 22 22 25 27 35 36 39 46 45 55 53 69 73 65 47 66 81 100 100 71 67 88 100 100 100 100 91 100 100 100 100
6 7 7 7 8 8 9 11 12 13 14 15 14 16 18 17 15 16 17 18 20 23 22 27 27 34 45 44 54 54 58 58 68 88 100 100 68 86 92 87 100 100 100 100 100 100 98
6 6 6 7 8 8 9 8 8 8 8 8 8 8 10 10 12 12 13 15 15 15 17 18 18 21 23 26 29 40 50 71 62 66 98 100 100 99 94 100 100 100 100 100 100 100 100
6 7 7 7 7 7 8 9 10 10 11 11 9 8 10 10 11 11 10 10 12 10 10 12 15 16 20 20 24 29 39 58 99 88 75 100 98 100 100 100 100 100 100 99 100 100 100
6 7 8 10 12 13 13 14 14 14 14 11 7 7 9 8 9 9 8 12 14 17 13 11 11 12 14 13 15 19 28 39 76 100 78 82 92 100 100 100 100 100 100 96 98 100 100
11 12 12 13 13 15 15 17 18 18 17 11 9 9 8 10 11 10 14 32 25 32 14 15 17 17 8 11 13 14 19 21 35 85 92 70 80 86 89 99 100 99 100 100 100 100 100
11 12 14 16 18 19 21 23 25 24 18 18 12 9 6 4 10 13 18 20 33 31 30 16 13 8 14 17 14 11 13 19 26 41 97 88 59 69 76 94 92 95 100 100 100 100 100
16 16 14 14 14 15 15 16 18 21 20 16 11 9 8 5 7 10 13 13 23 26 21 16 15 22 30 19 11 11 11 16 23 29 58 100 96 71 53 76 89 100 100 100 100 100 100
12 12 11 11 11 10 10 10 10 10 11 10 7 6 5 6 4 9 11 13 13 13 15 13 20 32 33 18 12 11 12 13 20 23 28 53 93 94 79 52 62 100 100 100 100 100 100
7 7 6 5 4 4 4 4 4 4 4 4 4 5 4 3 3 5 5 8 10 10 9 12 17 16 24 10 13 11 13 11 13 18 24 37 30 30 44 43 50 78 100 100 100 100 100
4 3 3 3 3 3 3 3 3 3 3 3 4 4 4 3 4 3 4 6 7 7 8 12 16 13 7 6 10 13 16 11 12 12 18 21 26 38 43 49 67 79 91 91 100 100 99
3 3 3 3 3 3 3 3 3 3 3 3 4 4 3 3 3 3 3 4 5 6 7 7 8 8 7 11 15 20 28 13 15 18 15 20 20 20 22 25 41 46 56 83 86 81 85

GFSGBSN_250_rhum_045.txt.gz
RH
97 94 92 85 74 67 60 47 40 23 20 21 18 18 60 72 88 82 89 99 96 73 100 100 100 100 79 57 61 68 71 51 40 35 25 28 80 56 72 100 96 75 56 50 29 45 48
99 95 78 62 62 50 38 32 24 18 14 16 24 33 85 100 100 100 100 100 100 95 82 100 100 99 70 67 59 76 80 63 46 37 32 31 50 45 100 100 92 79 68 60 30 41 53
67 71 60 41 38 35 28 23 19 16 16 17 33 55 90 100 100 100 100 100 100 94 74 100 100 100 79 81 77 87 87 68 61 48 38 36 38 33 42 100 100 100 82 56 35 39 43
48 38 45 40 34 29 24 20 17 17 17 25 56 74 100 100 100 100 100 100 100 100 80 80 100 100 100 84 81 98 98 95 72 60 45 38 40 44 76 100 100 100 91 56 34 37 51
39 33 32 31 32 23 21 21 16 19 29 56 98 100 100 100 100 100 100 100 100 96 96 56 99 100 100 92 89 100 100 96 88 69 65 47 51 52 51 55 82 99 86 65 38 33 31
40 34 34 32 29 24 23 21 19 38 61 98 100 100 100 100 100 100 100 100 100 100 89 81 64 100 100 100 96 100 100 100 100 90 75 68 50 52 64 75 56 64 88 88 46 39 36
47 37 33 32 28 24 23 24 25 57 95 100 100 100 100 90 100 100 100 100 100 100 100 100 84 68 100 100 100 100 100 100 100 100 88 46 67 57 40 47 73 60 46 76 69 44 62
43 43 30 30 25 26 26 43 38 61 97 100 96 100 100 100 92 100 100 100 100 100 100 100 100 100 96 100 90 100 100 100 100 100 83 83 87 55 35 40 44 68 55 45 44 46 83
51 43 37 26 27 27 30 50 59 64 93 100 100 100 100 100 100 96 98 100 100 100 100 95 100 100 100 95 100 79 100 100 100 100 100 100 90 66 68 62 46 35 46 40 44 56 86
62 39 29 26 26 28 30 51 79 69 91 85 99 98 100 100 100 100 85 93 100 100 100 100 99 100 100 99 88 78 69 100 100 100 100 97 91 98 100 79 50 38 32 38 41 60 71
53 27 27 26 25 27 30 42 65 85 99 100 85 97 100 100 100 100 100 100 92 92 71 88 73 85 78 71 87 100 100 75 82 100 100 99 100 100 100 100 57 43 37 35 31 34 91
44 26 26 26 28 28 31 39 56 76 91 100 100 100 95 100 99 98 100 100 100 100 98 96 61 52 54 62 80 100 100 90 64 68 93 99 100 100 100 100 60 56 46 38 33 42 95
25 23 24 27 28 30 32 27 31 52 74 89 100 100 100 100 89 87 97 100 100 98 100 100 100 100 100 92 100 100 100 100 100 97 75 100 100 100 74 100 94 71 64 45 35 35 63
20 20 23 27 32 32 31 31 33 37 52 63 80 82 97 100 100 100 80 82 95 100 80 93 100 100 100 100 100 100 100 100 100 99 97 98 99 100 100 100 100 72 71 49 39 32 43
17 22 24 25 27 27 30 29 27 25 29 35 38 68 100 73 85 100 100 93 82 67 69 77 73 88 100 100 100 100 100 98 99 100 100 100 100 100 100 100 99 78 53 58 45 37 30
19 23 23 25 27 26 24 24 23 21 21 19 21 23 69 48 68 86 80 96 100 89 69 99 99 83 70 84 100 100 100 99 89 93 99 95 91 97 86 75 68 80 88 74 68 57 38
20 21 21 21 22 22 21 18 17 16 16 17 18 19 33 31 38 52 63 99 90 100 100 85 81 90 100 93 88 86 100 100 100 95 88 88 97 100 100 100 100 100 100 100 86 57 42
17 16 16 15 15 15 14 13 12 11 11 13 14 14 22 24 28 41 64 73 100 90 99 100 100 100 99 75 100 100 100 100 100 100 100 100 100 100 100 100 100 100 90 68 66 66 58
11 11 10 10 10 9 8 8 8 8 7 8 8 11 15 16 20 28 40 64 91 98 99 89 98 100 100 100 89 77 90 99 100 100 100 100 100 100 100 100 100 96 94 98 95 68 59
9 8 9 9 8 8 8 8 8 7 7 6 6 8 11 13 17 21 24 31 56 81 75 88 82 90 100 100 100 100 89 70 66 88 100 100 100 100 100 100 99 96 100 98 96 69 60
7 7 8 7 9 8 7 8 8 8 7 5 6 8 10 12 15 17 20 24 26 37 78 87 90 95 92 92 87 86 95 99 98 92 70 65 75 86 96 100 96 82 89 95 87 91 69
6 7 8 9 8 7 8 9 9 8 7 5 6 8 9 11 14 14 17 20 20 22 26 36 57 87 91 89 88 88 89 86 83 80 80 72 76 77 74 77 99 96 99 100 96 86 76
6 7 8 8 8 10 10 9 9 8 6 5 6 8 8 10 12 15 17 14 18 20 23 25 28 27 28 42 35 38 45 58 62 63 63 63 53 58 59 72 76 77 77 70 89 98 100
6 7 7 8 10 10 10 10 10 9 7 7 7 8 9 10 12 13 13 14 15 16 17 18 20 19 23 25 26 28 28 29 32 37 36 36 47 33 31 54 49 65 67 66 66 100 92
6 6 8 10 10 9 10 9 8 8 8 8 8 10 12 14 13 15 12 11 11 12 14 16 18 20 21 20 19 21 22 22 23 22 23 22 23 24 22 21 25 30 38 55 56 61 92
6 8 9 10 10 11 12 12 13 12 10 8 7 7 10 18 23 12 12 12 16 16 14 13 16 14 12 14 15 14 13 14 14 15 15 16 17 18 19 16 16 26 36 47 57 51 84
7 8 9 9 9 10 10 11 11 11 10 8 7 9 10 21 25 23 25 22 17 14 14 19 20 14 13 12 11 11 12 12 12 12 11 12 10 12 13 12 12 25 34 36 38 45 84
7 7 7 7 9 11 13 13 15 16 16 14 15 16 18 20 22 31 34 34 42 32 39 51 31 16 13 14 15 22 18 16 16 18 16 14 13 12 10 10 14 22 23 29 25 29 46
9 11 13 14 14 15 15 16 17 18 16 15 14 17 17 14 24 24 32 46 49 50 57 40 32 31 22 18 23 24 24 18 21 23 26 23 19 12 10 11 14 16 17 20 22 24 32

GFSGBSN_250_rhum_051.txt.gz
RH
100 100 100 100 100 100 91 86 79 84 99 95 73 58 41 34 36 33 24 19 18 17 20 19 17 22 34 68 90 100 100 100 100 91 73 57 52 52 29 25 26 47 85 99 75 98 81
100 100 100 94 97 100 98 89 67 44 42 53 60 67 43 38 33 24 22 20 16 17 18 16 20 44 78 100 96 100 100 100 100 80 85 56 48 61 34 30 26 35 88 100 99 75 91
44 71 97 52 63 68 77 65 58 52 47 50 53 54 50 33 25 26 19 16 16 16 18 28 53 100 100 100 100 100 100 100 100 87 94 52 51 68 40 35 32 44 58 80 74 48 62
39 73 77 62 58 58 52 53 70 60 51 49 54 59 71 28 27 27 20 16 17 20 28 56 76 100 100 100 100 100 100 100 100 97 87 58 55 69 55 42 42 46 47 60 53 54 56
72 71 67 75 78 68 70 68 67 62 54 69 72 61 48 34 33 28 22 18 21 28 56 84 100 96 100 100 100 100 100 100 100 100 97 62 59 85 76 58 59 42 56 49 72 76 60
72 95 99 65 81 90 92 83 64 67 80 75 70 68 50 36 32 30 23 20 34 48 96 97 100 100 100 100 100 100 100 100 100 99 77 69 68 93 99 82 71 41 63 51 39 56 42
96 78 76 87 88 89 75 84 72 76 96 82 76 61 45 36 30 34 23 30 74 100 100 100 100 100 100 100 100 100 100 66 92 100 100 79 76 100 85 69 70 81 58 62 41 50 44
94 100 100 100 100 99 90 93 94 81 82 84 66 57 39 34 26 39 25 44 98 100 100 100 100 100 100 100 100 100 97 99 76 100 100 85 98 100 64 76 100 95 66 67 31 67 49
100 100 99 100 90 92 100 99 94 70 74 75 62 52 36 28 30 39 29 44 100 100 100 100 91 100 100 100 100 100 100 82 87 98 100 100 100 100 79 71 100 100 92 39 31 68 67
99 100 97 86 87 96 94 98 96 90 77 62 52 43 31 28 36 36 31 45 100 100 100 99 100 100 100 100 100 100 100 100 100 59 100 100 100 100 100 87 100 100 90 50 45 55 93
92 94 94 95 92 95 94 97 98 85 70 64 44 36 27 26 36 32 33 54 100 100 100 100 100 89 100 100 100 100 100 100 100 82 78 100 100 100 100 99 78 100 84 73 62 66 73
82 96 99 99 95 80 89 96 88 82 61 44 35 28 23 23 28 28 31 51 92 100 100 100 100 86 100 100 100 100 100 100 100 100 84 73 100 100 100 92 83 100 94 86 79 58 58
100 93 87 79 85 94 82 76 72 51 37 34 29 22 19 21 21 26 28 46 92 98 100 100 100 100 96 100 100 100 100 100 100 100 100 96 100 100 100 100 99 100 100 100 84 84 79
91 77 71 70 76 78 59 48 42 36 33 27 21 18 20 21 23 25 28 38 67 99 100 100 100 100 100 92 100 100 100 100 100 100 100 95 100 100 100 100 98 88 100 68 61 76 52
61 60 55 45 44 44 37 36 30 27 22 18 17 20 26 21 21 26 23 24 53 75 100 100 100 100 100 98 100 100 100 100 100 100 100 100 100 100 100 100 98 75 69 68 55 48 35
39 38 36 33 31 28 28 26 19 16 16 16 18 23 31 25 21 21 20 26 31 64 87 100 100 100 100 100 99 100 100 100 100 100 100 100 100 100 100 100 91 100 100 81 52 37 27
22 20 20 21 21 21 18 15 15 16 16 15 19 23 36 29 21 16 19 24 34 48 55 93 100 100 100 96 100 100 100 100 100 100 100 100 100 100 98 95 93 95 99 84 49 34 29
11 12 12 13 14 15 16 17 17 17 16 17 18 22 29 27 20 16 17 24 34 42 43 77 91 100 100 82 85 90 100 79 100 100 100 100 100 100 100 100 96 86 76 60 43 50 50
9 10 11 12 12 14 14 14 14 15 14 13 15 18 21 23 19 19 20 20 26 33 36 51 80 80 100 97 91 74 86 98 95 87 98 94 99 100 99 100 98 78 60 47 41 53 64
5 6 6 7 7 8 9 9 10 11 10 9 10 13 15 13 14 15 18 19 22 26 29 34 61 70 87 100 80 81 70 79 83 84 70 68 56 87 100 96 96 100 100 100 100 100 100
4 4 4 4 4 6 6 6 7 8 7 8 10 13 12 12 12 11 10 12 14 20 25 27 44 70 70 69 95 100 78 83 71 82 100 98 71 100 100 100 100 100 100 92 87 89 84
3 3 3 4 4 4 4 5 5 6 6 7 8 10 9 9 9 8 8 10 11 12 18 26 27 40 66 94 87 82 83 72 90 99 77 80 89 93 94 90 97 92 79 80 78 81 64
2 2 2 3 3 3 4 4 4 4 5 6 8 9 8 8 7 8 9 10 9 9 13 20 24 25 38 71 78 100 90 80 71 75 85 90 90 82 78 69 77 93 85 77 88 90 76
3 3 3 3 3 3 3 4 4 4 4 6 8 7 7 9 10 9 8 8 8 9 11 13 18 22 23 31 58 77 87 95 100 100 91 78 87 74 73 86 79 75 100 100 100 100 100
3 3 3 3 3 3 3 3 4 4 4 6 7 8 10 9 8 9 10 10 9 9 10 11 13 17 18 19 31 54 76 86 94 100 100 97 100 99 93 99 88 98 100 100 100 100 100
3 3 3 3 4 4 4 4 4 4 5 6 8 9 9 9 11 10 10 10 9 9 9 12 11 14 17 18 23 32 53 77 93 100 96 98 96 97 93 97 100 93 79 81 86 92 96
3 3 3 3 3 4 4 4 4 5 6 8 9 9 11 14 12 12 12 11 10 10 11 11 11 12 14 18 24 26 30 39 64 93 100 99 99 95 87 90 99 90 86 82 84 84 76
3 3 4 4 4 4 4 5 6 7 8 8 10 13 13 14 14 13 13 13 12 11 11 12 11 11 14 19 23 27 28 30 33 36 43 55 72 91 100 100 100 91 74 68 71 69 63
4 4 4 4 4 5 5 6 6 7 9 11 13 13 11 13 16 15 14 14 13 12 11 10 11 12 14 18 22 25 28 28 28 30 30 31 30 32 33 37 38 38 34 31 29 36 33

GFSGBSN_250_rhum_054.txt.gz
RH
100 100 96 89 81 75 92 91 77 87 100 98 61 60 59 59 59 52 50 44 31 24 24 26 24 21 18 16 18 18 20 24 25 33 54 100 100 81 73 63 44 24 36 54 90 74 77
80 100 100 93 85 71 55 51 51 56 91 88 73 58 56 59 55 51 45 39 31 25 27 25 20 14 13 15 16 19 21 25 49 61 100 100 100 60 80 60 39 28 36 45 44 100 73
92 80 100 100 93 64 64 67 49 56 71 89 78 55 63 61 55 43 43 39 29 26 26 24 15 14 16 17 22 72 65 41 100 97 100 100 100 72 73 58 44 32 28 32 65 89 98
100 100 83 77 72 52 64 79 62 59 68 52 55 55 55 53 58 49 42 36 30 27 25 22 17 18 17 20 52 100 100 99 100 100 100 100 100 91 70 62 58 32 33 40 53 55 60
100 100 100 100 100 100 100 99 79 68 62 58 68 71 73 70 62 62 50 41 30 25 24 22 21 20 30 68 95 100 100 100 100 100 95 100 100 98 68 59 62 37 36 48 58 62 62
100 100 100 100 100 96 90 100 93 76 82 67 58 78 74 66 69 64 53 42 31 27 24 26 31 37 90 100 100 100 100 100 100 86 100 100 100 100 67 57 91 50 34 65 48 52 56
100 99 100 100 88 95 100 91 98 97 84 100 99 89 79 77 72 63 56 39 31 27 29 30 45 63 98 100 100 100 100 100 100 77 100 100 100 100 76 56 51 71 56 84 39 51 50
100 100 100 100 100 95 100 84 100 100 100 97 89 94 88 82 80 61 43 34 34 29 37 35 84 98 100 100 100 100 100 100 99 82 100 100 100 97 80 58 56 90 100 95 37 54 59
100 100 100 100 100 100 100 99 81 93 99 86 89 84 97 94 73 52 43 32 33 31 44 40 77 98 100 100 100 100 100 100 91 76 100 100 100 100 84 55 49 97 100 100 48 55 69
100 100 100 100 100 100 100 100 100 89 86 86 81 93 84 84 64 50 35 34 28 37 44 57 98 100 100 100 100 100 100 100 84 76 99 100 100 99 93 67 61 95 100 96 87 52 82
94 100 98 100 91 100 98 100 92 91 95 90 85 73 80 88 68 39 36 30 25 38 47 75 100 100 95 100 100 100 100 100 91 76 96 88 100 100 100 95 80 100 100 76 59 88 87
100 95 99 98 95 98 90 94 82 78 85 84 76 80 77 66 52 35 31 27 21 32 58 75 100 100 100 100 100 100 100 100 97 88 68 95 100 100 100 99 86 88 100 84 70 100 100
87 72 82 82 85 89 81 77 75 76 80 84 77 74 74 59 40 34 26 24 17 27 50 83 100 100 100 100 100 100 100 100 100 92 95 95 100 100 100 100 100 97 100 100 100 90 100
68 72 76 73 75 83 74 85 79 80 74 61 59 56 59 41 39 31 22 17 16 24 37 88 100 100 96 100 100 100 100 100 100 76 100 100 100 100 100 100 100 100 100 100 91 78 100
48 58 68 67 57 60 58 55 55 58 57 46 42 39 41 32 31 25 18 15 15 23 44 76 99 100 100 100 100 100 100 100 100 100 88 98 100 100 100 100 100 89 90 100 100 88 87
29 28 29 31 32 32 32 30 33 39 36 31 30 31 32 29 24 18 15 15 18 22 32 58 92 100 100 100 100 95 100 100 100 100 100 98 94 100 100 100 100 75 69 64 56 55 69
22 23 20 17 18 18 18 20 21 23 21 21 21 21 21 21 19 17 17 17 23 20 26 48 84 92 100 100 100 77 99 100 100 100 100 100 99 99 100 100 100 100 92 81 79 72 66
10 9 9 9 10 10 11 12 13 14 12 13 14 18 17 17 16 19 26 22 32 23 21 34 71 92 95 100 100 100 64 100 100 100 100 81 100 100 100 100 100 100 100 100 99 88 84
8 8 8 8 8 9 9 10 11 13 12 12 13 17 17 16 17 23 28 26 26 31 18 24 37 69 82 90 100 100 80 66 100 100 100 100 100 100 100 100 100 100 100 100 95 80 69
5 5 5 5 5 5 5 6 7 8 8 9 11 13 16 15 19 21 24 27 26 29 21 21 23 39 73 76 83 100 100 60 82 100 100 100 100 100 100 99 94 84 82 93 98 93 86
4 4 3 4 3 4 4 4 4 5 5 6 7 9 11 12 15 16 18 21 24 27 23 18 23 25 36 61 72 81 100 100 60 82 100 100 100 100 100 100 100 100 100 98 91 76 82
3 3 3 3 3 3 3 4 4 4 4 4 6 8 9 10 10 11 13 16 17 16 18 17 19 22 26 34 51 76 77 92 97 65 79 100 100 100 100 100 100 100 100 100 100 93 82
3 2 2 2 2 2 3 3 3 3 3 5 6 7 8 9 9 10 11 11 12 11 11 12 14 20 22 27 29 50 89 97 100 78 90 90 99 93 95 96 99 100 100 91 94 100 100
3 3 3 3 3 2 2 2 3 3 4 5 6 6 7 9 7 9 8 7 8 8 9 11 12 14 19 21 27 28 55 98 100 99 79 76 75 83 83 92 88 93 90 96 100 100 100
3 3 3 3 3 3 3 3 3 3 3 5 5 6 6 7 7 6 6 7 8 8 9 9 11 10 14 18 21 23 31 63 99 98 100 80 73 71 69 74 83 100 98 97 73 79 73
3 3 3 3 3 3 3 3 3 3 4 4 4 5 5 6 6 6 7 8 8 8 8 8 8 9 10 14 18 21 22 34 61 95 100 100 84 73 81 100 100 96 95 95 91 87 77
3 3 3 3 3 3 4 4 4 4 4 4 5 5 5 6 5 7 8 8 9 8 8 8 8 8 9 11 15 20 22 23 39 67 79 99 100 100 96 85 78 79 79 84 87 82 81
3 3 3 3 3 3 4 4 4 4 5 5 4 5 6 6 6 8 9 9 9 9 8 8 8 8 10 11 14 18 22 24 28 48 90 98 100 98 87 90 100 100 99 96 92 100 100
4 4 3 3 3 4 4 4 4 5 5 4 5 6 6 7 9 9 10 11 13 12 12 10 9 9 11 11 13 15 21 24 27 30 52 85 99 100 100 100 90 92 100 100 93 100 99

GFSGBSN_250_rhum_057.txt.gz
RH
100 99 100 100 83 69 73 98 92 86 91 84 78 67 62 58 46 47 58 83 90 77 52 48 36 26 25 24 24 19 19 18 17 17 19 22 20 26 35 97 100 100 73 53 33 32 63
100 100 100 100 92 83 94 84 73 100 100 98 79 66 67 59 51 47 58 74 55 47 47 44 35 30 26 23 20 18 16 15 17 19 20 23 24 26 40 100 100 93 67 52 28 33 91
100 100 100 98 90 100 98 91 94 91 89 100 100 90 92 90 70 60 60 62 52 43 49 40 32 29 25 21 19 15 13 14 18 21 21 23 24 29 88 100 100 99 61 49 28 33 68
100 100 100 100 100 94 100 100 97 96 99 84 91 100 100 100 100 90 73 64 49 46 50 35 30 26 25 21 18 17 16 18 25 26 25 26 31 61 100 100 100 93 61 57 31 37 39
100 100 100 100 95 100 100 100 100 99 100 99 100 91 76 95 96 91 88 94 74 50 49 42 27 25 24 21 19 22 24 57 76 72 66 53 61 100 100 100 100 94 64 52 32 32 35
100 100 100 100 100 100 100 99 100 100 100 100 81 99 77 86 98 100 100 77 60 55 56 42 26 27 23 26 21 50 58 100 99 96 98 99 100 100 100 100 100 100 66 39 31 44 30
100 100 100 100 98 96 100 100 100 100 100 100 91 97 65 100 100 90 88 87 66 72 63 46 28 31 24 29 50 87 100 100 100 100 100 100 100 100 100 100 100 85 64 49 39 40 33
100 100 100 100 100 100 100 100 100 100 86 100 100 100 97 88 95 100 98 84 75 76 74 44 29 30 26 66 90 97 100 100 100 100 100 87 99 100 100 100 100 83 70 58 42 50 43
100 100 100 100 100 100 100 100 100 100 100 100 100 100 100 100 100 98 100 91 84 75 58 45 28 31 31 94 100 100 100 100 100 100 100 93 100 100 100 100 100 85 76 82 54 44 67
100 100 100 100 100 100 100 100 100 93 95 100 100 100 96 100 76 98 89 80 79 67 49 36 32 30 46 98 100 100 100 100 100 100 100 91 100 100 100 100 100 84 78 90 78 57 96
100 100 100 98 78 100 95 89 82 80 84 88 86 86 94 86 100 88 84 78 73 71 44 39 33 28 45 84 100 100 100 100 100 100 100 86 100 100 100 100 100 94 73 82 97 95 100
100 100 98 100 100 97 88 83 88 87 90 87 94 87 83 80 80 77 76 75 70 57 33 35 34 28 40 100 100 100 100 100 100 100 100 70 99 100 100 100 99 95 66 79 58 94 100
84 94 88 78 61 96 72 80 71 83 86 77 84 85 71 81 74 82 88 80 66 47 37 34 34 26 46 100 100 100 98 100 100 99 98 65 87 100 100 100 97 98 70 80 69 66 100
96 90 81 74 60 52 55 53 62 66 84 84 85 83 84 83 84 77 71 60 48 42 42 34 30 25 45 90 100 100 100 100 100 100 100 65 76 99 100 100 86 95 100 96 96 98 100
39 31 34 40 35 37 43 41 44 46 53 56 68 63 65 56 70 56 49 43 55 54 48 31 26 23 56 86 100 100 100 100 100 100 100 98 78 87 100 100 100 91 100 100 100 98 100
30 28 26 27 26 24 23 23 26 29 28 27 29 35 40 39 40 36 35 44 62 48 38 30 22 22 43 86 89 100 100 100 100 100 100 100 87 99 100 100 100 98 88 100 100 100 100
18 19 19 16 14 13 13 14 15 15 17 19 21 25 26 28 31 30 35 46 44 39 32 28 20 21 33 100 82 93 100 100 100 100 98 80 59 85 88 100 100 100 85 98 100 91 100
14 17 14 11 10 9 10 10 9 9 10 10 10 14 18 22 23 26 34 35 34 34 28 24 19 20 30 81 99 86 97 97 100 100 100 100 56 56 88 100 100 100 100 100 89 82 92
11 9 7 7 7 7 7 8 8 8 8 10 10 12 14 12 14 19 25 25 27 31 24 21 21 20 24 43 98 93 96 82 100 100 100 100 100 100 74 83 94 100 100 100 100 91 79
6 6 6 6 5 5 5 5 6 6 6 6 7 9 12 12 15 18 20 22 23 30 22 17 21 21 24 29 79 100 94 88 92 100 100 100 100 100 96 87 100 100 100 99 99 100 100
6 6 5 5 5 4 4 4 4 4 4 4 4 7 8 8 12 15 15 19 21 24 25 17 18 21 22 24 31 89 100 73 86 92 100 92 97 100 82 84 73 90 100 100 100 87 88
5 5 4 4 3 3 3 4 3 3 3 3 4 6 6 6 7 10 13 16 19 21 24 18 16 18 22 23 21 36 77 85 68 71 94 100 100 100 100 100 95 82 100 100 100 100 100
4 4 3 3 3 2 2 3 3 3 3 4 5 5 5 6 7 8 10 13 16 17 20 17 15 15 20 22 17 19 37 74 99 65 62 81 100 100 100 100 100 100 93 81 92 100 94
3 3 3 2 2 2 2 3 2 2 3 4 4 4 4 5 5 6 8 11 11 12 14 16 17 17 16 21 20 16 18 40 90 97 71 68 71 90 100 100 100 100 100 100 100 100 100
3 3 3 3 3 3 3 3 3 3 3 3 3 4 5 5 6 7 8 8 9 10 12 13 15 13 14 15 21 21 17 20 56 94 99 88 76 58 71 100 100 100 100 100 100 100 100
3 3 3 3 3 3 3 3 3 3 3 3 3 4 5 5 6 6 6 7 7 9 10 11 12 11 10 10 14 21 20 18 25 55 92 100 98 89 75 63 97 100 100 100 100 100 100
4 4 4 4 3 3 3 4 4 4 4 3 3 3 4 5 4 4 5 6 6 8 8 8 9 9 9 10 11 17 21 18 19 26 51 77 93 100 98 92 78 74 85 98 100 89 86
4 4 4 4 3 3 3 4 4 4 4 4 3 4 4 3 3 4 5 6 7 7 7 7 8 8 9 10 11 13 18 20 18 22 29 59 78 89 100 99 86 86 89 99 98 85 88
4 4 4 4 4 4 4 4 4 4 4 4 4 4 4 4 4 5 6 6 6 6 7 7 8 10 11 11 11 12 15 18 21 21 26 36 78 100 96 100 100 99 83 93 100 100 91